Home > Weather > Racine > Past weeks

Flag for U.S.A. Weather for the Past 2 Weeks in Racine, Wisconsin, U.S.A.

Now
12 °F

Passing clouds.


Feels Like: -5 °F
Forecast: 2 / 11 °F
Wind: 17 mph from Northwest

Location: Batten International Airport

Current Time: Feb 12, 2016 at 7:08:51 PM

Latest Report: Feb 12, 2016 at 5:53 PM


Visibility: 10 mi

Pressure: 30.34 "Hg

Humidity: 42%

Dew point: -7 °F

Location of RacineLocation

Historic Weather in Racine — Graph

°F

Racine Temperature Yesterday

Maximum temperature yesterday: 19 °F (at 2:53 PM)
Minimum temperature yesterday: 4 °F (at 5:53 AM)
Average temperature yesterday: 12 °F

High & Low Weather Summary for the Past Weeks

 TemperatureHumidityPressure
High44 °F (Jan 30, 1:53 PM)97% (Feb 3, 12:53 AM)30.40 "Hg (Feb 3, 12:53 AM)
Low4 °F (Feb 11, 5:53 AM)34% (Feb 12, 2:53 PM)29.46 "Hg (Feb 3, 12:53 AM)
Average28 °F70%29.95 "Hg
* Reported Jan 28 4:53 PM — Feb 12 4:53 PM, Racine, Weather by CustomWeather, © 2016

Note: Actual official high and low records may vary slightly from our data, if they occured in-between our weather recording intervals... More about our weather records

Advertising

Racine Weather History for the Previous 24 Hours

 ConditionsComfort  
Time TempWeatherWind HumidityBarometerVisibility
4:53 PM
Fri, Feb 12
15 °FPassing clouds.15 mph40%30.29 "Hg10 mi
3:53 PM18 °FSunny.16 mph37%30.23 "Hg10 mi
2:53 PM19 °FPassing clouds.15 mph34%30.20 "Hg10 mi
1:53 PM20 °FScattered clouds.21 mph40%30.18 "Hg10 mi
12:53 PM20 °FScattered clouds.22 mph43%30.17 "Hg10 mi
11:53 AM20 °FScattered clouds.15 mph48%30.18 "Hg10 mi
10:53 AM19 °FPartly sunny.18 mph49%30.18 "Hg10 mi
9:53 AM18 °FPartly sunny.20 mph52%30.18 "Hg10 mi
8:53 AM17 °FOvercast.10 mph56%30.17 "Hg10 mi
7:53 AM17 °FOvercast.14 mph54%30.17 "Hg10 mi
6:53 AM18 °FOvercast.14 mph54%30.16 "Hg10 mi
5:53 AM18 °FOvercast.10 mph57%30.16 "Hg10 mi
4:53 AM18 °FOvercast.14 mph57%30.16 "Hg10 mi
3:53 AM18 °FOvercast.10 mph57%30.17 "Hg10 mi
2:53 AM18 °FOvercast.12 mph57%30.18 "Hg10 mi
1:53 AM18 °FOvercast.14 mph54%30.20 "Hg10 mi
12:53 AM18 °FOvercast.8 mph57%30.22 "Hg10 mi
11:53 PM
Thu, Feb 11
17 °FOvercast.7 mph59%30.25 "Hg10 mi
10:53 PM17 °FOvercast.8 mph56%30.27 "Hg10 mi
9:53 PM17 °FOvercast.7 mph54%30.29 "Hg10 mi
8:53 PM14 °FPassing clouds.5 mph56%30.30 "Hg10 mi
7:53 PM13 °FClear.3 mph56%30.32 "Hg10 mi
Weather by CustomWeather, © 2016

See weather overviewHow to use our weather pages